Regional Weather Roundup
Issued by NWS Wakefield, VA

Home | Current Version | Previous Version | Text Only | Print | Product List | Glossary Off
Versions: 1 2 3 4 5 6 7 8 9 10 11 12 13 14 15 16 17 18 19 20 21 22 23 24 25 26 27 28 29 30 31 32 33 34 35 36 37 38 39 40 41 42 43 44 45 46 47 48 49 50

000
ASUS41 KAKQ 200310
RWRAKQ

REGIONAL WEATHER ROUNDUP
NATIONAL WEATHER SERVICE WAKEFIELD VA
1000 PM EST FRI DEC 19 2014

Note: "fair" indicates few or no clouds below 12,000 feet with no
significant weather and/or obstructions to visibility. * = Denotes
station may not report precipitation (e.g., rain,snow,etc.),
thunder or fog.

VAZ042-051-052>054-056-200400-
NORTHERN VIRGINIA

CITY           SKY/WX    TMP DP  RH WIND       PRES   REMARKS
WASH NATIONAL  CLEAR     36  22  56 NW10      30.27R
DULLES         CLEAR     30  21  69 NW7       30.25R
FORT BELVOIR   CLEAR     26  22  87 CALM      30.26S
QUANTICO       CLEAR     32  22  66 N5        30.27S
FREDERICKSBRG* CLEAR     34  25  69 N5        30.25S
STAFFORD*      CLEAR     32  21  64 N5        30.30R
WARRENTON      CLEAR     27  26  94 CALM      30.24S
CULPEPER*      CLEAR     28  23  80 CALM      30.25S
MANASSAS*      CLEAR     28  25  86 N3        30.26S
LEESBURG*      CLEAR     32  27  80 N7        30.26R
WINCHESTER     CLEAR     32  19  59 NW9       30.25R
FRONT ROYAL*   CLEAR     27  21  80 CALM      30.24S
LURAY*         CLEAR     28  25  86 S3        30.24R
$$

VAZ048-049-060>072-079>083-200400-
CENTRAL AND SOUTH CENTRAL VIRGINIA

CITY           SKY/WX    TMP DP  RH WIND       PRES   REMARKS
RICHMOND       MOCLDY    34  23  64 N9        30.24R
CHESTERFIELD*  PTCLDY    36  16  44 N6        30.25R
PETERSBURG*    PTCLDY    31  26  81 N3        30.24R
HANOVER        CLEAR     33  22  63 VRB6      30.26R
TAPPAHANNOCK*  CLEAR     33  21  61 NW5       30.24S
QUINTON*       PTCLDY    33  24  68 N6        30.24R
CHARLOTTSVILLE CLEAR     32  22  66 CALM      30.23R
GORDONSVILLE*  CLEAR     25  22  88 CALM      30.23R
ORANGE*        CLEAR     28  25  86 CALM      30.25R
LOUISA*        CLEAR     28  23  80 CALM      30.23R
BUMPASS*       CLEAR     32  23  68 N5        30.24R
FARMVILLE*     PTCLDY    33  26  76 N6        30.23R
CREWE*         PTCLDY    32  24  73 CALM      30.22R
FORT PICKETT*  PTCLDY    31  25  78 NE5       30.23R
CHASE CITY*    PTCLDY    33  30  90 CALM      30.21R
CLARKSVILLE*   PTCLDY    34  30  86 CALM      30.20R
SOUTH HILL*    PTCLDY    32  28  88 CALM      30.27R
LAWRENCEVILLE* PTCLDY    33  28  83 CALM      30.22R
EMPORIA*       PTCLDY    32  28  86 N5        30.25R
$$

VAZ088>098-200400-
SOUTHEAST VIRGINIA

CITY           SKY/WX    TMP DP  RH WIND       PRES   REMARKS
NORFOLK        PTCLDY    39  26  59 N9        30.23R
VIRGINIA BEACH PTCLDY    37  28  70 CALM      30.23R
NORFOLK NAVAL  MOCLDY    41  26  55 N12       30.25R
WEST POINT*    CLEAR     33  25  73 CALM      30.25S
SALUDA*        FAIR      35  26  68 N7        30.23R
NEWPORT NEWS   CLEAR     35  25  66 N3        30.23R
LANGLEY AFB    CLEAR     36  26  68 N8        30.24R
FORT EUSTIS    CLEAR     34  24  69 N1        30.23R
WILLIAMSBURG*  CLEAR     34  28  80 N3        30.25R
HR EXEC AP*    PTCLDY    25  21  86 CALM      30.25R
FRANKLIN*      CLEAR     28  27  93 CALM      30.23R
WAKEFIELD      CLEAR     29  25  85 CALM      30.24R
$$

VAZ020-022-025-037-045-200400-
WEST CENTRAL AND SOUTHWEST VIRGINIA

CITY           SKY/WX    TMP DP  RH WIND       PRES   REMARKS
STAUNTON*      CLEAR     28  21  76 N5        30.24R
WAYNESBORO*    CLEAR     27  21  77 W3        30.21R
HOT SPRINGS VA CLEAR     21  21 100 NW10      30.07F WCI  10
LYNCHBURG      PTCLDY    33  25  72 NE5       30.22R
DANVILLE       MOCLDY    34  27  75 NE3       30.21R
SOUTH BOSTON*  PTCLDY    32  27  82 CALM      30.21S
MARTINSVILLE   MOCLDY    32  27  79 NE3       30.20F
ROANOKE        PTCLDY    33  22  63 N9        30.23S
BLACKSBURG     PTCLDY    30  22  72 W6        30.20S
DUBLIN*        PTCLDY    32  26  76 CALM      30.18S
MARION*        PTCLDY    32  24  73 CALM      30.16F
HILLSVILLE*    MOCLDY    33  23  66 CALM      30.14S
RICHLANDS*     MOCLDY    29  23  76 NE7       30.15F
WISE*          MOCLDY    30  27  86 NE3       30.14F
ABINGDON*      MOCLDY    32  26  78 CALM      30.16S
$$

MDZ021>025-VAZ099-100-200400-
SOUTHERN MARYLAND AND THE DELMARVA PENINSULA

CITY           SKY/WX    TMP DP  RH WIND       PRES   REMARKS
PATUXENT RIVER CLEAR     33  23  66 NW9       30.24R
BAY BRIDGE APT   N/A     34  25  69 NW10      30.24R
LEONARDTOWN    CLEAR     32  23  69 CALM      30.25S
DOVER          CLEAR     32  23  68 W7        30.19R
GEORGETOWN     CLEAR     31  23  72 W3        30.22R
EASTON         CLEAR     34  28  77 N5        30.27R
CAMBRIDGE      CLEAR     37  27  65 NW9       30.22R
SALISBURY      CLEAR     34  24  67 NW3       30.21R
OCEAN CITY     CLEAR     29  23  78 NW5       30.21R
WALLOPS ISLAND CLEAR     30  25  81 NW3       30.22S
ACCOMACK*      CLEAR     34  25  69 NW5       30.22R
$$

NCZ012>017-030>032-200400-
NORTH CENTRAL AND EASTERN NORTH CAROLINA

CITY           SKY/WX    TMP DP  RH WIND       PRES   REMARKS
ROANOKE RAPIDS PTCLDY    32  30  93 CALM      30.22R
RALEIGH        CLOUDY    41  27  57 CALM      30.20S
ELIZABETH CITY PTCLDY    40  31  70 NE6       30.23R
AHOSKIE*       PTCLDY    30  28  93 CALM      30.23S
EDENTON*         N/A     34  31  88 NE3       30.23R
CURRITUCK*     PTCLDY    38  30  74 N5        30.23R
KILL DEVIL HLS PTCLDY    40  32  71 N3        30.21R
MANTEO         PTCLDY    40  32  71 N6        30.22R
CAPE HATTERAS  PTCLDY    41  34  76 NE3       30.21R
TARBORO*       NOT AVBL
GOLDSBORO      MOCLDY    38  37  97 CALM      30.20R
WASHINGTON     PTCLDY    35  31  88 CALM      30.22S
GREENVILLE     MOCLDY    34  32  93 CALM      30.23R
NEW BERN       MOCLDY    41  32  70 CALM      30.22S
WILMINGTON     CLOUDY    44  34  67 NE6       30.19S
$$

VAZ048-200400-
ELSEWHERE

CITY           SKY/WX    TMP DP  RH WIND       PRES   REMARKS
HARRISBURG PA  MOCLDY    31  22  69 NW9       30.22R
BALTIMORE      CLEAR     30  21  69 W3        30.24R
ANNAPOLIS      CLEAR     35  23  61 W6        30.25R
ANDREWS AFB    CLEAR     33  22  64 NW7       30.24R
PHILADELPHIA   MOCLDY    34  21  59 N7        30.22R
HENDERSON NC   MOCLDY    36  30  80 CALM      30.20R
GREENSBORO     CLOUDY    41  25  53 CALM      30.17F
ROCKY MOUNT    MOCLDY    35  31  85 CALM      30.22R
$$

VAZ100-200400-
MARINE

STATION/POSITION TIME  TEMP    WIND        PRES    WAVE   SWELL
                       AIR SEA DIR/SP/G            HT/PER HT/PER
                 (UTC) (F)     (DEG/KT/KT) (MB)    (FT/S) (FT/S)
CAPE MAY NJ      0300   38 42   20/  1/  5 1021.9R
LEWES DE         0300   36 42  300/ 12/ 14 1022.5R
15NM E FENWICK I 0300   40 47              1022.1R   2/ 3
OCEAN-CITY-INLET 0300   34 45  290/  5/  7 1022.5S
WACHAPREAGUE VA  0300   32 43   CALM  /  1 1023.1R
THOMAS POINT MD  0300   35 41  310/  9/ 10 1025.3R
GOOSES REEF MD   0300   36     VRB 14/ 16  1023.0R   1/ 2
COVE POINT MD    0300   34     320/  7/ 11 1023.6R
SOLOMONS ISLAND  0300      43                N/A
BISHOPS HEAD MD  0300   36 37  320/  8/ 10 1023.0R
POTOMAC MD       0300   37 44  350/ 12/ 16 1022.9R   1/ 3
CAMBRIDGE MD     0300   38 40  320/ 12/ 14 1023.3R
LEWISETTA VA     0300   36 42  310/  8/  9 1023.5R
RAPPAHANNOCK LGT 0300          340/ 17/ 19 1023.5R
STINGRAY PT      0300   38 44  350/ 12/ 16 1023.7S   1/ 3
YORK RVR RNG VA  0300   39     360/ 12/ 14 1022.7R
YORKTOWN VA      0300   37 45  340/  6/  7 1023.3R
JAMESTOWN VA     0300   38 45  350/  2/  6   N/A     1
DOMINION TERM VA 0300   38      50/  1/  3 1023.4R
KIPTOPEKE VA     0300      49   60/  2/  2   N/A
CHES BAY BRIDGE  0300   40 46  360/ 14/ 16 1022.7R
CAPE HENRY VA    0300   40      10/ 11/ 13 1021.9R
CHESAPEAKE LGHT  0200   40     360/ 16/ 18 1023.4S
WILLOUBY STN VA  0300   39     360/  8/ 10 1023.8R
S CRANEY ISL VA  0300           20/ 10/ 12 1023.5R
CAPE HENRY BUOY  0200      48                N/A     3/ 4
1ST LANDING BUOY 0300   41 45  360/ 14/ 17 1023.0R   2/ 3
CAPE CHARLES BUO 0300      48                N/A     2/ 4   2/11
64NM E OF VA BCH 0300   43 54  340/ 16/ 19 1022.1R   4/ 5
DUCK PIER NC     0300   42 47   10/  9/ 13 1022.2R
44100 DUCK FRF   0300      51                N/A     4/ 6
44056 DUCK FRF   0300      47                N/A     3/ 6
OREGON INLET NC  0300   40 50  330/  5/  7 1022.9R
HATTERAS NC      0300   44 53   40/  5/  7 1023.3R
DIAMOND SHLS NC  0300   46                 1023.0R   3/ 6
CAPE LOOKOUT NC  0200   47      20/  7/  9 1022.4R
$$



USA.gov is the U.S. government's official web portal to all federal, state and local government web resources and services.